Probability
0 0 0 0 0 0 3 0 0 0 0 0 0 0 0 3 0 0 0 0 0 0 90 100 100 100 94 87 84 94 97 100 100 100 100 100 100 100 100 100 100 100 100 100 100 100 100 100 100
0 0 0 0 0 0 0 0 0 0 0 0 0 0 0 10 0 0 0 0 0 16 94 100 100 100 100 94 94 94 97 100 100 100 100 100 100 100 100 100 100 100 100 100 100 100 100 100 100
0 0 0 0 0 0 0 0 0 0 0 0 0 0 0 3 6 0 0 0 0 35 90 100 100 100 100 97 97 94 94 100 100 100 100 100 100 100 100 100 100 100 100 100 100 100 100 100 97
0 0 0 0 0 0 0 0 0 0 0 0 0 0 0 13 10 0 0 0 13 65 84 97 100 100 100 100 97 97 94 100 100 100 100 100 100 100 100 100 100 100 100 100 100 100 97 97 97
0 0 0 0 0 0 0 0 0 0 0 0 0 0 0 19 0 0 0 0 23 65 77 97 100 100 100 100 97 97 94 100 100 100 100 100 100 100 100 100 100 100 100 100 100 100 100 100 100
0 0 0 0 0 0 0 0 0 0 0 0 0 0 0 10 0 0 0 0 23 65 90 97 100 100 100 100 100 100 100 100 100 100 100 100 100 100 100 100 100 100 100 100 100 100 100 100 100
0 0 0 0 0 0 0 0 0 0 0 0 0 0 0 16 0 0 0 0 23 68 90 100 100 100 100 100 100 100 100 100 100 100 100 100 100 100 100 100 100 100 100 100 100 100 100 100 100
0 0 0 0 0 0 0 0 0 0 0 0 0 0 0 6 0 0 0 0 16 61 90 100 100 94 97 100 100 100 100 100 100 100 100 100 100 100 100 100 100 100 100 100 100 100 100 100 100
0 0 0 0 0 0 0 0 0 0 0 0 0 0 0 3 0 0 0 0 10 55 71 90 94 94 94 94 94 94 94 100 100 100 100 100 100 100 100 100 100 100 100 100 100 100 100 100 100
0 0 0 0 0 0 0 0 0 0 0 0 0 6 10 13 0 0 0 0 0 16 42 81 87 87 87 87 90 90 90 90 94 97 97 100 100 100 100 100 100 100 100 100 100 100 100 100 97
0 0 0 0 0 0 0 0 0 0 0 0 0 0 16 19 10 6 0 0 0 0 13 32 48 45 58 68 65 68 84 84 87 94 94 97 97 100 100 100 100 100 100 100 97 100 94 90 94
0 0 0 0 0 0 0 0 0 0 0 0 0 0 19 23 19 13 19 6 0 0 0 6 29 35 39 42 45 52 58 68 84 81 87 90 94 97 97 100 97 90 87 90 87 87 84 84 84
0 0 0 0 0 0 0 0 0 0 3 6 10 13 16 19 19 16 10 19 10 3 0 0 10 16 19 29 23 32 42 52 55 65 71 84 87 81 81 77 77 77 77 81 71 71 65 71 77
0 0 0 0 0 0 0 0 0 3 3 6 6 10 16 13 10 3 3 13 13 10 3 0 0 3 10 13 10 13 23 39 45 52 58 61 71 77 71 65 45 48 48 42 42 39 48 52 58
0 0 0 0 0 0 0 0 0 3 3 10 10 10 3 0 0 0 0 3 6 6 6 3 0 0 0 3 3 10 16 26 35 42 42 42 55 61 65 39 29 16 10 3 0 0 0 6 10
0 0 0 0 0 0 0 0 3 0 3 6 6 3 0 0 0 0 0 0 0 0 0 0 0 0 3 3 3 13 19 23 23 26 35 42 58 52 48 39 19 6 3 0 0 0 0 0 0
0 0 0 0 0 0 0 3 3 3 0 0 0 0 3 0 0 0 0 0 0 0 0 0 0 0 3 3 6 13 13 13 19 23 23 29 52 58 35 23 3 3 0 0 0 0 0 0 0
0 0 0 0 3 0 0 0 0 3 3 0 0 0 0 0 0 0 3 0 0 0 0 0 0 0 0 0 3 6 3 3 10 19 26 29 42 58 23 13 3 0 0 0 0 0 0 0 0
0 0 0 6 6 0 0 0 0 0 0 0 0 0 0 0 0 0 0 0 0 0 0 0 0 0 0 0 0 3 3 3 3 10 13 19 29 48 10 6 0 0 0 0 0 0 0 0 0
0 0 0 6 10 3 0 0 0 0 0 0 0 0 0 0 0 0 0 0 0 0 0 0 0 0 0 0 0 0 0 0 0 0 0 0 13 6 10 0 0 0 0 0 0 0 0 0 0
0 0 0 10 6 13 0 0 0 0 0 0 0 0 0 0 0 0 0 0 0 0 0 0 0 0 0 0 0 0 0 0 0 0 0 0 0 3 0 0 0 0 0 0 0 0 0 0 0
0 0 0 6 0 0 0 0 0 0 0 0 0 0 0 0 0 0 0 0 0 0 0 0 0 0 0 0 0 0 0 0 0 0 0 0 0 0 0 0 0 0 0 0 0 0 0 0 0
0 0 0 0 0 0 0 0 0 0 0 0 0 0 0 0 0 0 0 0 0 0 0 0 0 0 0 0 0 0 0 0 0 0 0 0 0 0 0 0 0 0 0 0 0 0 0 0 0
0 0 0 0 0 0 0 0 0 0 0 0 0 0 0 0 0 0 0 0 0 0 0 0 0 0 0 0 0 0 0 0 0 0 0 0 0 0 0 0 0 0 0 0 0 0 0 0 0
0 0 0 0 0 0 0 0 0 0 0 0 0 0 0 0 0 0 0 0 0 0 0 0 0 0 0 0 0 0 0 0 0 0 0 0 0 0 0 0 0 0 0 0 0 0 0 0 0
0 0 0 0 0 0 0 0 0 0 0 0 0 0 0 0 0 0 0 0 0 0 0 0 0 0 0 0 0 0 0 0 0 0 0 0 0 0 0 0 0 0 0 0 0 0 0 0 0
0 0 0 0 0 0 0 0 0 0 0 0 0 0 0 0 0 0 0 0 0 0 0 0 0 0 0 0 0 0 0 0 0 0 0 0 0 0 0 0 0 0 0 0 0 0 0 0 0
0 0 0 0 0 0 0 0 0 0 0 0 0 0 0 0 0 0 0 0 0 0 0 0 0 0 0 0 0 0 0 0 0 0 0 0 0 0 0 0 0 0 0 0 0 0 0 0 0
0 0 0 0 0 0 0 0 0 0 0 0 0 0 0 0 0 0 0 0 0 0 0 0 0 0 0 0 0 0 0 0 0 0 0 0 0 0 0 0 0 0 0 0 0 0 0 0 0
0 0 0 0 0 0 0 0 0 0 0 0 0 0 0 0 0 0 0 0 0 0 0 0 0 0 0 0 0 0 0 0 0 0 0 0 0 0 0 0 0 0 0 0 0 0 0 0 0
Height
5913 5914 5914 5914 5915 5914 5912 5912 5911 5911 5910 5910 5909 5909 5908 5908 5908 5910 5908 5906 5906 5906 5905 5905 5905 5905 5904 5903 5901 5900 5899 5899 5898 5898 5898 5898 5897 5897 5897 5896 5896 5896 5895 5895 5894 5892 5891 5890 5890
5914 5914 5915 5915 5914 5914 5914 5913 5912 5912 5911 5910 5910 5909 5909 5908 5907 5907 5906 5905 5905 5905 5905 5904 5904 5903 5902 5901 5900 5899 5898 5898 5897 5897 5897 5897 5896 5896 5896 5895 5895 5895 5894 5894 5893 5893 5892 5891 5890
5913 5914 5915 5914 5914 5914 5913 5913 5913 5912 5911 5910 5909 5909 5909 5909 5908 5906 5906 5905 5904 5904 5904 5903 5902 5901 5901 5900 5899 5898 5897 5896 5896 5895 5895 5895 5895 5895 5894 5894 5893 5893 5893 5893 5892 5892 5891 5891 5890
5913 5913 5914 5914 5913 5912 5912 5912 5912 5911 5911 5910 5909 5909 5909 5909 5907 5906 5905 5905 5904 5903 5903 5902 5900 5899 5898 5898 5897 5896 5895 5895 5894 5894 5893 5893 5893 5892 5892 5891 5891 5891 5891 5890 5890 5890 5890 5890 5889
5911 5912 5912 5911 5910 5910 5910 5910 5910 5910 5909 5909 5909 5908 5908 5908 5907 5905 5905 5904 5904 5903 5902 5900 5899 5898 5896 5896 5895 5894 5893 5893 5892 5891 5891 5890 5890 5890 5889 5889 5888 5888 5887 5887 5887 5887 5887 5887 5887
5909 5910 5910 5909 5908 5907 5908 5908 5908 5908 5908 5907 5907 5907 5907 5907 5906 5905 5904 5903 5902 5901 5900 5898 5897 5895 5894 5893 5892 5891 5890 5889 5888 5888 5887 5887 5886 5886 5885 5885 5884 5884 5884 5884 5884 5883 5883 5884 5884
5907 5907 5907 5907 5905 5904 5905 5905 5905 5905 5905 5905 5905 5905 5905 5905 5904 5903 5902 5901 5900 5899 5897 5896 5894 5893 5892 5890 5889 5888 5886 5885 5884 5884 5883 5882 5882 5881 5881 5880 5880 5880 5880 5879 5879 5879 5878 5879 5879
5904 5905 5904 5903 5902 5901 5902 5901 5901 5902 5903 5904 5904 5904 5903 5903 5902 5901 5900 5899 5897 5896 5894 5893 5891 5890 5888 5887 5885 5884 5882 5881 5880 5879 5878 5878 5877 5876 5876 5876 5875 5875 5875 5875 5874 5874 5873 5874 5874
5901 5902 5901 5900 5899 5899 5899 5898 5898 5899 5900 5901 5901 5901 5900 5900 5899 5898 5897 5896 5894 5892 5891 5890 5888 5886 5884 5882 5881 5879 5877 5875 5874 5873 5872 5872 5871 5871 5871 5871 5870 5870 5870 5869 5869 5868 5868 5868 5869
5897 5898 5898 5897 5896 5896 5896 5896 5896 5897 5897 5898 5898 5897 5897 5896 5896 5895 5893 5892 5890 5888 5887 5885 5883 5881 5879 5877 5875 5873 5871 5869 5867 5866 5865 5865 5865 5865 5865 5865 5865 5864 5864 5864 5863 5862 5862 5862 5863
5893 5894 5894 5893 5893 5893 5894 5893 5892 5893 5893 5893 5892 5892 5892 5892 5891 5891 5889 5888 5886 5884 5882 5879 5877 5874 5871 5869 5867 5865 5864 5862 5860 5858 5857 5857 5857 5858 5859 5859 5858 5858 5858 5858 5857 5856 5856 5856 5857
5889 5889 5889 5890 5889 5889 5889 5888 5888 5887 5887 5887 5887 5886 5887 5887 5887 5886 5885 5883 5881 5878 5876 5873 5869 5866 5863 5860 5858 5856 5855 5853 5851 5850 5849 5849 5849 5851 5852 5852 5852 5852 5851 5851 5851 5851 5851 5851 5852
5884 5885 5884 5885 5884 5883 5882 5882 5882 5882 5882 5882 5882 5882 5882 5881 5881 5881 5880 5878 5875 5872 5869 5865 5861 5858 5855 5852 5849 5848 5845 5842 5840 5840 5840 5840 5841 5842 5844 5844 5845 5845 5845 5845 5846 5846 5846 5846 5847
5880 5880 5879 5879 5878 5877 5877 5877 5877 5877 5877 5877 5877 5877 5877 5876 5876 5875 5874 5872 5869 5865 5861 5857 5853 5850 5846 5844 5841 5838 5834 5831 5830 5830 5831 5831 5832 5834 5836 5837 5838 5838 5838 5839 5840 5840 5841 5841 5842
5875 5875 5875 5874 5874 5873 5874 5873 5872 5873 5873 5873 5873 5873 5872 5871 5871 5870 5868 5865 5861 5857 5853 5849 5846 5843 5840 5837 5833 5828 5823 5820 5818 5819 5821 5823 5824 5826 5827 5829 5831 5831 5832 5833 5834 5835 5835 5836 5836
5871 5871 5871 5870 5870 5870 5872 5870 5869 5868 5868 5868 5869 5869 5868 5867 5866 5864 5861 5858 5854 5850 5847 5844 5840 5837 5833 5829 5824 5819 5814 5808 5805 5807 5811 5814 5817 5819 5820 5822 5824 5825 5825 5826 5827 5828 5829 5830 5831
5868 5867 5867 5867 5866 5866 5867 5866 5865 5865 5864 5864 5864 5864 5864 5862 5860 5858 5855 5852 5848 5844 5841 5838 5835 5831 5827 5823 5818 5811 5805 5799 5796 5799 5802 5806 5809 5811 5813 5815 5817 5818 5819 5820 5821 5822 5823 5824 5825
5864 5864 5864 5864 5863 5863 5863 5862 5862 5862 5862 5861 5861 5860 5859 5857 5855 5852 5849 5846 5843 5839 5836 5833 5830 5826 5822 5818 5813 5805 5799 5794 5793 5796 5798 5801 5803 5805 5807 5809 5810 5811 5812 5813 5814 5815 5817 5817 5819
5861 5861 5861 5861 5860 5860 5859 5859 5859 5859 5859 5858 5857 5856 5854 5851 5849 5846 5843 5839 5836 5833 5830 5827 5824 5820 5817 5813 5808 5803 5799 5796 5795 5795 5796 5797 5798 5799 5801 5802 5803 5804 5806 5807 5807 5809 5810 5812 5813
5859 5859 5858 5857 5857 5857 5856 5856 5857 5856 5855 5854 5852 5850 5848 5845 5842 5839 5835 5831 5828 5825 5823 5820 5816 5814 5811 5807 5803 5800 5798 5796 5795 5794 5794 5794 5794 5794 5795 5796 5797 5798 5799 5800 5801 5802 5804 5805 5807
5857 5857 5856 5855 5854 5854 5854 5854 5853 5852 5850 5848 5846 5844 5841 5838 5834 5831 5827 5823 5819 5816 5814 5811 5809 5806 5804 5801 5798 5795 5794 5792 5791 5790 5790 5789 5789 5789 5789 5790 5790 5791 5792 5793 5794 5796 5797 5799 5801
5856 5855 5854 5852 5851 5851 5851 5850 5849 5847 5845 5842 5840 5837 5833 5830 5826 5822 5819 5815 5812 5809 5806 5803 5801 5798 5796 5794 5792 5790 5788 5787 5786 5785 5784 5784 5783 5783 5783 5783 5784 5784 5785 5786 5787 5788 5790 5792 5794
5854 5853 5852 5851 5850 5849 5848 5847 5846 5843 5840 5838 5834 5831 5827 5824 5820 5816 5813 5809 5806 5802 5799 5796 5792 5789 5787 5784 5783 5781 5780 5779 5778 5777 5777 5776 5775 5775 5775 5775 5776 5776 5777 5778 5779 5780 5782 5785 5787
5852 5852 5851 5850 5849 5848 5847 5845 5843 5839 5836 5833 5829 5826 5822 5819 5815 5811 5807 5803 5799 5795 5791 5787 5783 5779 5776 5773 5770 5769 5768 5767 5767 5766 5766 5765 5765 5764 5765 5766 5766 5767 5768 5769 5770 5772 5774 5776 5779
5851 5851 5850 5849 5847 5846 5844 5842 5840 5836 5832 5829 5826 5822 5818 5813 5809 5805 5800 5795 5791 5786 5782 5777 5773 5768 5764 5760 5757 5755 5753 5752 5752 5752 5752 5752 5752 5752 5752 5753 5755 5756 5758 5759 5761 5763 5765 5767 5770
5849 5848 5848 5846 5844 5843 5840 5838 5835 5831 5828 5824 5820 5816 5812 5807 5802 5797 5792 5787 5783 5777 5772 5766 5762 5757 5752 5747 5743 5740 5737 5736 5735 5735 5735 5735 5736 5737 5738 5739 5741 5743 5745 5747 5749 5752 5754 5757 5760
5846 5845 5844 5842 5840 5838 5836 5833 5830 5826 5822 5818 5814 5809 5804 5799 5793 5788 5782 5777 5772 5766 5760 5755 5749 5744 5739 5734 5730 5725 5722 5719 5717 5716 5716 5717 5717 5718 5720 5722 5724 5727 5730 5733 5735 5738 5742 5745 5748
5844 5842 5840 5839 5836 5834 5832 5829 5826 5821 5817 5812 5806 5801 5795 5789 5783 5776 5769 5763 5756 5749 5743 5738 5733 5728 5723 5718 5714 5710 5706 5702 5700 5698 5697 5697 5697 5699 5700 5702 5705 5708 5712 5716 5720 5723 5727 5731 5735
5841 5839 5837 5835 5833 5830 5827 5826 5820 5815 5810 5804 5799 5792 5786 5779 5771 5763 5755 5747 5740 5732 5726 5720 5715 5710 5705 5701 5697 5693 5689 5685 5682 5679 5677 5676 5675 5676 5678 5680 5683 5687 5691 5696 5701 5706 5710 5715 5720
5838 5836 5834 5833 5830 5826 5823 5822 5813 5808 5802 5797 5790 5783 5776 5768 5760 5751 5743 5735 5727 5720 5713 5706 5700 5694 5688 5683 5679 5674 5669 5664 5661 5658 5655 5654 5653 5653 5654 5657 5660 5664 5668 5673 5679 5685 5691 5697 5703
Wind_Speed
7 6 5 4 4 4 4 6 7 8 8 8 7 5 3 3 4 6 7 9 10 11 13 14 15 14 13 12 11 10 9 7 5 4 3 2 2 3 3 4 5 5 6 8 8 8 9 9 9
9 8 8 7 6 6 6 6 7 7 9 9 9 8 7 6 6 7 8 9 10 12 13 15 15 14 14 13 12 11 10 9 7 6 5 5 5 5 5 6 6 6 7 7 7 7 7 7 7
11 11 10 9 8 8 7 8 8 8 9 9 9 9 9 9 8 8 9 10 11 13 14 15 15 15 14 14 13 12 11 10 9 9 8 8 8 8 8 8 8 8 8 8 8 7 6 5 5
12 12 12 11 11 10 10 10 10 10 9 9 8 8 9 9 9 9 10 12 12 13 15 16 15 15 14 13 13 13 13 12 12 12 12 12 12 12 12 12 11 11 11 11 11 10 9 8 7
14 14 14 14 15 14 14 14 13 12 10 7 6 7 8 8 8 8 10 11 12 13 14 15 14 14 13 13 13 14 14 15 15 16 16 16 16 16 16 15 15 15 14 14 14 14 13 12 11
16 16 16 17 18 18 18 17 16 14 12 7 4 4 6 6 6 6 8 9 11 12 14 14 14 14 14 14 15 15 16 17 18 18 19 19 20 20 19 19 18 18 18 18 18 18 17 16 16
18 17 18 19 21 22 22 21 20 17 13 8 5 3 5 5 5 7 8 10 11 13 15 16 17 18 18 18 18 19 19 20 21 21 21 21 22 22 22 21 21 21 21 21 21 21 21 21 20
19 19 20 22 24 24 24 23 22 20 15 10 7 6 6 7 7 9 10 12 14 16 17 19 20 22 23 24 24 24 25 25 24 24 24 23 23 22 23 22 22 23 23 23 24 25 25 24 24
19 20 21 24 25 25 25 26 25 23 20 16 11 9 8 9 10 11 13 15 18 20 21 23 25 26 28 29 30 30 30 30 30 28 27 25 24 23 23 23 23 23 24 24 25 26 27 27 26
20 19 21 25 27 27 27 27 27 26 25 20 15 13 11 12 13 15 17 20 22 24 25 27 29 31 34 35 36 37 37 36 35 33 31 28 26 24 23 23 23 24 24 25 26 27 27 27 26
19 18 19 24 28 28 28 29 29 29 27 22 19 18 17 17 18 20 22 24 26 27 29 30 32 35 37 38 40 40 41 41 40 37 34 31 28 25 24 23 24 25 25 26 26 25 26 27 26
18 17 19 21 26 28 30 31 32 32 29 27 25 24 22 22 23 24 25 26 29 31 32 34 36 37 38 38 39 40 39 40 41 41 37 33 30 27 25 24 25 25 25 25 25 24 25 25 24
19 18 19 20 24 27 30 33 34 33 32 31 29 27 27 28 29 28 27 27 29 31 33 35 36 36 37 38 38 39 42 41 41 41 37 35 32 28 26 24 25 25 25 24 24 23 22 22 23
20 19 20 22 24 28 31 32 34 35 34 33 32 31 31 32 31 29 29 29 30 32 34 35 36 38 38 38 37 38 39 39 41 39 36 36 34 30 26 24 24 24 24 24 24 24 23 23 23
20 20 22 24 25 27 28 30 32 33 34 35 34 34 34 33 31 30 31 31 33 34 35 38 39 40 40 40 41 40 39 40 38 38 37 38 35 30 24 23 23 23 23 24 24 24 24 24 24
19 20 22 23 24 25 25 26 26 29 30 31 32 32 31 30 31 31 32 34 36 37 40 42 43 42 41 40 42 41 40 38 33 34 35 35 32 26 22 20 21 21 21 22 23 24 25 25 25
19 19 20 21 22 22 21 20 20 22 23 24 25 27 28 29 31 32 34 36 39 41 43 44 44 43 40 40 41 40 38 31 26 29 30 31 29 24 21 20 21 20 21 21 22 23 24 25 25
17 18 19 20 20 20 18 17 16 16 19 21 23 26 28 30 33 34 37 40 42 43 45 44 43 40 38 38 39 35 32 24 18 22 22 25 23 22 22 22 22 21 21 21 22 22 23 24 24
16 16 18 18 18 18 17 16 15 16 19 23 26 28 31 33 35 38 41 43 44 45 44 43 41 39 37 37 36 33 28 24 18 16 17 20 21 22 22 22 23 23 23 22 22 22 23 23 23
13 15 16 17 18 18 17 17 17 19 22 25 28 30 33 36 38 41 43 45 45 45 44 42 40 38 37 36 35 33 29 26 22 19 18 19 20 20 21 22 24 25 25 24 24 23 23 23 24
12 14 15 17 18 18 19 19 20 22 25 28 31 33 35 37 39 41 40 40 41 40 41 40 40 39 39 37 35 33 30 27 24 22 21 21 21 21 22 24 25 26 26 26 26 26 25 25 25
10 11 12 13 14 16 17 19 20 22 25 28 29 31 31 32 33 34 34 34 33 35 37 39 40 40 40 39 37 35 33 30 28 27 26 25 25 25 25 25 26 27 28 28 28 28 28 28 28
6 7 7 9 11 12 13 15 17 20 22 25 26 27 28 28 29 30 31 32 33 35 38 39 40 41 42 41 40 39 37 35 34 32 31 31 30 30 30 29 29 29 29 30 31 31 31 31 31
6 6 6 7 8 9 11 14 16 18 21 22 24 27 29 31 32 33 34 35 36 38 40 41 43 44 44 44 43 42 41 40 39 38 37 37 37 36 36 35 34 33 32 32 33 33 33 33 33
8 8 8 8 9 10 12 15 16 19 21 23 26 29 31 32 34 35 36 37 38 39 41 42 43 44 45 46 46 46 45 45 44 43 43 43 43 43 43 42 40 39 38 37 37 36 36 37 36
10 11 11 12 12 13 15 17 19 22 24 27 29 31 33 34 36 36 37 37 38 39 41 42 43 44 45 47 48 49 49 49 48 48 48 48 49 49 49 49 48 47 45 43 42 41 41 41 40
11 12 13 15 15 17 18 21 23 25 28 31 33 34 35 37 37 38 39 40 41 42 43 43 43 43 44 44 45 47 48 48 49 49 50 51 52 53 54 55 55 54 53 51 49 47 46 45 45
13 14 16 17 19 20 21 22 24 27 30 33 35 36 37 39 41 42 44 46 47 48 47 46 44 43 43 42 41 41 42 44 45 47 48 50 53 55 57 59 60 60 60 58 57 55 53 51 49
14 15 16 18 19 21 23 25 27 30 32 34 36 38 40 42 44 47 49 51 51 51 51 49 48 47 46 45 44 44 44 46 47 48 48 50 52 54 57 60 62 64 65 65 64 63 61 58 56
13 15 16 17 19 22 25 27 29 31 33 35 37 40 43 46 48 50 52 52 52 52 51 51 50 50 50 50 50 51 51 52 52 51 51 51 53 55 57 60 64 66 68 69 69 69 68 65 63
Wind_Direction
209 214 219 230 260 287 315 328 332 334 338 342 349 352 352 346 334 319 301 299 293 294 297 297 293 292 294 297 302 308 316 324 334 346 352 346 336 329 328 330 333 337 342 350 357 6 18 27 33
223 229 231 240 260 275 300 319 326 326 325 322 325 326 327 329 326 322 314 309 307 309 309 305 300 298 298 299 301 305 309 313 317 319 317 310 303 298 297 298 303 309 316 329 338 346 2 18 27
237 237 237 245 255 270 285 299 305 306 311 312 306 307 313 317 316 318 314 311 312 314 311 305 301 300 301 302 302 303 303 303 304 302 300 298 293 289 288 287 287 289 293 301 312 318 327 342 357
240 240 243 248 257 265 276 289 294 296 297 303 294 296 306 310 314 319 317 317 318 316 312 307 304 304 305 305 304 302 300 299 298 296 294 292 289 286 284 282 280 278 279 283 290 295 297 302 311
242 242 246 254 263 269 273 280 285 288 297 297 289 280 298 307 313 321 325 327 325 319 315 312 310 310 310 308 305 302 299 297 295 293 291 289 286 284 281 279 277 275 274 275 278 281 283 286 289
245 245 247 257 266 273 275 279 282 286 295 296 299 277 294 302 311 324 326 322 316 312 311 311 310 309 307 303 300 297 295 292 290 289 287 287 286 284 281 278 276 274 273 273 274 275 276 279 281
252 249 245 252 261 270 277 283 284 288 295 297 296 281 291 293 302 309 308 302 300 300 301 302 302 301 298 295 292 290 289 287 286 285 284 284 283 281 279 277 275 273 271 272 272 272 273 274 277
260 253 244 245 255 267 276 282 288 291 295 298 299 293 287 289 294 295 292 288 288 290 292 292 294 294 293 291 289 287 285 283 281 281 281 281 280 278 277 275 274 272 270 269 269 270 271 272 274
263 255 245 241 250 263 274 280 287 294 300 305 305 299 285 286 290 291 289 287 286 287 291 292 292 291 290 289 288 285 283 280 278 276 276 276 276 276 275 274 273 271 269 268 267 267 268 269 270
266 261 250 245 251 258 267 276 284 291 297 302 300 289 282 286 291 290 290 290 288 288 290 291 292 292 290 289 287 284 282 279 277 275 273 272 273 273 273 273 273 272 270 267 266 264 264 265 267
266 266 257 248 251 256 262 270 279 285 289 291 289 283 281 283 287 289 290 292 290 291 292 292 292 291 291 290 288 284 281 280 276 272 270 268 269 270 270 272 273 272 269 268 266 265 262 262 264
261 260 257 251 252 256 259 264 269 274 278 281 282 284 286 286 286 287 289 290 291 291 291 290 289 291 293 292 290 287 287 284 277 272 267 265 264 264 265 268 270 269 267 267 267 267 262 260 261
259 258 259 255 251 253 255 258 263 267 272 276 278 280 282 283 286 287 287 286 287 289 290 290 294 294 298 298 294 293 292 283 273 269 264 260 259 259 261 264 265 265 264 264 264 264 264 261 261
264 262 260 257 253 254 255 257 260 263 267 271 273 275 279 283 286 286 287 286 285 289 290 293 300 303 307 310 307 304 296 286 276 266 261 257 256 255 256 260 261 262 261 259 258 259 259 258 259
266 265 263 262 261 261 262 262 263 265 267 268 268 271 276 280 283 286 288 287 288 290 296 303 311 316 316 315 315 310 303 291 276 260 255 253 252 251 257 259 257 257 256 255 255 255 255 255 255
270 266 264 265 264 266 268 267 267 268 266 265 265 267 273 278 284 289 291 291 294 298 306 311 315 317 317 318 318 314 308 298 273 255 252 248 246 249 253 251 252 253 252 251 251 251 252 252 253
270 265 264 263 266 268 271 272 271 268 263 260 262 267 273 279 285 289 291 295 301 307 311 312 313 315 317 318 320 318 313 300 266 251 248 238 239 243 245 249 250 248 246 246 247 248 249 249 251
268 266 266 263 264 268 271 274 272 264 258 261 268 275 280 283 286 289 293 297 301 305 307 308 310 311 314 316 320 322 321 314 281 256 243 235 238 241 245 248 247 243 242 242 243 245 247 247 248
269 270 271 269 267 268 270 273 271 268 267 270 277 282 285 286 287 289 293 296 297 299 301 303 305 307 310 314 319 321 322 322 310 281 262 252 247 246 245 247 247 243 241 240 240 242 244 245 245
273 275 276 272 273 274 275 277 275 276 276 279 282 284 286 287 288 290 292 293 293 294 296 298 301 303 306 310 315 318 318 316 313 305 290 275 262 254 250 250 248 245 242 240 238 237 239 239 239
276 281 282 282 281 280 279 280 280 279 280 282 285 288 290 290 290 291 292 294 292 292 294 296 299 300 301 304 307 310 311 308 304 298 291 284 274 265 260 256 252 247 243 240 238 236 236 235 235
273 286 290 291 292 290 286 287 286 287 286 286 289 294 296 296 297 296 295 298 296 295 295 295 296 297 298 299 300 301 300 297 293 288 283 277 273 269 264 259 255 250 246 242 239 236 234 234 233
294 309 312 307 305 303 299 294 291 289 289 292 294 297 300 301 304 304 301 300 299 297 296 296 296 296 296 296 295 294 291 288 284 279 275 272 269 267 264 260 256 252 248 245 241 238 236 234 233
309 322 333 333 322 308 301 294 290 289 292 295 298 301 304 306 306 307 306 303 301 299 298 298 297 296 295 294 292 289 286 283 278 274 269 266 263 261 259 257 254 251 249 247 245 242 240 237 235
311 316 313 309 307 299 295 293 292 295 297 300 302 305 306 307 308 307 306 305 303 301 300 298 296 295 293 292 290 287 284 281 276 271 267 262 259 257 254 252 251 250 247 245 244 243 242 240 238
313 316 315 310 305 302 297 298 298 300 301 304 306 308 308 309 309 308 307 305 304 301 299 297 296 294 292 290 288 286 284 281 277 272 267 262 258 255 253 250 248 247 246 244 243 242 241 240 239
313 315 315 313 312 308 307 304 302 302 304 307 310 312 313 313 313 311 310 309 307 304 302 300 298 297 295 292 289 287 284 281 277 273 269 264 260 255 252 250 248 245 244 242 242 241 240 239 239
314 316 315 315 315 313 311 309 308 306 308 312 314 316 316 316 316 315 315 314 313 312 310 308 307 305 304 301 297 293 289 285 281 276 272 267 263 258 254 250 247 246 243 241 240 240 239 238 238
315 315 314 314 315 314 314 316 316 314 316 317 318 319 320 320 320 320 319 319 318 316 315 314 313 312 310 307 304 300 296 292 287 282 277 271 266 261 256 251 248 246 244 241 239 238 238 237 237
321 320 319 318 319 319 320 320 320 320 321 322 322 323 324 324 323 323 322 320 319 317 316 315 314 313 311 309 307 303 300 295 290 285 281 275 269 263 258 254 250 246 244 242 239 238 237 236 236